Theta_e
303 303 303 303 303 304 304 304 304 305 306 307 308 307 308 313 318 321 325 325 322 321 326 328 328 327 327 327 327 328 329 329 329 329 329 328 328 328 328 328 328 328 328 328 329 329 330 331 330 331 332 332 330 329 330 330 332 337 339 335 334 344 346 334 337 355 352 336 336 334 333 338 332 333 337 332 330 331 329 335 340 329 323 330 328 324 341
303 302 303 303 303 304 304 304 304 304 305 305 305 307 309 312 314 316 320 323 320 319 324 330 333 331 326 323 323 325 326 327 328 330 329 329 328 328 328 327 326 328 328 327 328 329 330 330 331 333 333 332 330 330 332 333 336 340 343 338 330 331 340 340 335 341 344 339 339 341 345 345 335 335 338 331 332 332 329 337 340 328 327 333 328 326 345
304 303 303 303 304 304 303 304 303 303 304 303 304 310 314 316 320 320 321 324 321 319 322 324 327 329 324 321 321 323 325 327 328 330 329 328 328 328 329 327 325 328 328 328 330 331 330 330 332 333 333 331 331 332 332 335 338 339 336 335 337 337 347 353 339 328 328 330 333 340 349 347 337 335 335 332 332 328 328 332 329 325 332 335 332 336 346
305 305 304 304 305 304 304 304 303 303 304 302 307 315 318 320 327 328 326 327 323 319 321 321 322 323 322 324 326 324 326 328 327 328 329 329 328 328 327 328 328 328 328 329 331 331 330 330 332 335 333 331 332 332 333 333 333 337 330 328 343 350 349 363 359 338 329 336 347 354 348 337 332 333 332 332 330 328 336 334 327 331 336 334 342 350 344
304 305 305 305 305 305 305 304 303 304 303 303 312 322 322 324 330 329 327 329 328 326 326 324 323 324 322 326 329 326 326 326 326 329 330 328 328 328 328 328 327 328 329 328 329 331 333 332 330 332 334 333 331 331 334 334 330 334 331 326 346 349 335 345 360 348 341 351 355 348 337 331 331 330 330 333 331 329 333 331 330 338 333 329 350 359 341
303 304 305 305 305 305 305 304 304 304 302 307 318 325 324 326 328 325 325 329 330 331 331 326 323 322 322 328 330 328 327 326 326 329 329 327 329 328 330 331 328 329 328 326 330 333 336 337 334 334 335 335 333 330 333 336 334 333 329 330 348 349 333 333 340 338 342 344 337 334 333 331 331 329 329 333 332 329 331 333 337 340 330 327 345 352 340
303 303 304 305 304 305 305 304 305 303 303 312 322 323 322 325 324 322 324 325 325 327 328 326 324 321 324 333 336 330 329 327 326 328 329 330 330 327 330 332 330 330 329 328 334 337 333 333 336 337 336 335 337 335 334 336 335 331 330 332 337 340 341 339 331 329 337 336 331 331 330 327 329 330 330 331 331 330 331 333 337 338 334 334 339 343 342
302 303 303 304 304 305 305 305 304 303 306 316 324 322 321 322 321 321 322 322 323 326 325 325 324 323 324 330 332 328 327 328 327 326 327 329 330 327 328 331 329 330 329 329 333 336 333 332 336 340 341 338 340 341 337 335 333 329 333 336 330 329 340 349 340 334 339 340 334 332 331 330 329 328 330 331 330 332 331 331 334 333 334 339 338 339 344
302 303 303 304 304 305 305 305 305 303 305 313 319 319 320 320 319 320 321 323 325 325 325 323 324 325 325 325 326 324 325 325 324 324 325 326 327 326 327 329 332 334 335 333 331 331 331 332 333 338 341 338 339 341 336 334 335 333 333 335 333 331 336 345 343 333 335 340 334 330 333 331 326 329 334 332 330 331 331 333 335 331 333 336 332 335 348
302 302 303 304 304 305 305 305 305 304 303 306 311 314 317 319 319 319 321 324 326 324 324 324 323 325 325 323 324 324 324 325 324 325 328 325 324 326 325 328 337 340 337 334 331 329 330 330 329 330 333 332 332 333 330 332 336 340 340 336 337 341 342 343 340 332 335 341 332 329 333 329 329 338 340 331 331 333 331 334 337 336 340 341 336 341 351
302 302 303 304 304 304 305 305 305 304 303 304 309 313 315 317 318 319 321 326 328 323 323 326 324 324 322 321 323 324 324 326 325 325 327 324 324 327 324 328 339 341 332 328 330 330 329 331 329 329 330 330 329 329 328 329 330 334 344 343 340 344 349 347 342 334 337 345 339 333 331 327 333 347 340 327 329 331 328 333 337 338 346 349 346 348 347
302 302 303 304 304 304 305 305 304 304 303 303 308 313 315 315 317 318 320 325 328 323 322 324 322 321 320 318 321 322 323 324 324 323 325 324 325 327 326 327 334 334 328 327 330 330 329 331 334 335 332 328 329 329 328 330 329 325 335 345 344 346 345 342 343 339 338 344 342 331 330 335 341 346 337 329 331 331 330 335 337 339 346 348 345 342 340
302 302 303 304 304 304 304 305 304 304 303 302 305 310 313 313 316 318 318 321 324 322 321 321 319 317 318 318 319 321 322 322 323 323 325 325 325 326 326 326 326 326 326 326 326 331 336 341 344 345 341 336 338 337 331 332 331 326 327 334 340 347 345 337 338 338 333 335 334 329 336 348 348 341 334 332 335 334 331 332 335 338 342 344 343 342 338
302 302 303 303 304 304 304 305 305 304 303 302 303 306 308 310 314 316 317 319 321 319 318 319 318 316 317 318 319 320 320 321 322 324 325 325 325 326 326 327 326 325 326 326 326 333 342 349 349 346 345 346 345 342 336 331 331 331 329 328 330 339 344 335 329 331 332 334 336 334 333 337 342 342 335 331 333 333 332 333 335 338 337 336 341 345 338
302 302 302 303 303 303 303 304 304 304 304 303 302 303 305 307 312 315 316 316 318 318 317 317 317 316 317 318 318 318 319 321 323 324 325 324 325 326 327 327 326 325 326 326 331 339 346 346 340 335 338 338 334 332 334 332 330 330 329 328 328 331 338 336 328 330 334 331 329 331 327 327 340 349 339 330 330 332 337 342 341 339 334 331 338 342 335
302 302 302 302 303 303 303 303 304 304 304 303 302 302 303 306 310 314 315 314 317 321 318 315 315 316 316 317 317 317 319 322 323 325 329 327 325 326 327 325 326 327 325 324 332 343 347 342 336 333 336 337 330 327 331 330 330 332 330 330 329 330 335 337 331 331 332 326 324 329 327 328 342 350 337 329 329 331 337 341 339 337 332 330 333 335 330
302 302 302 302 302 302 302 302 303 303 304 304 303 302 304 305 307 310 312 313 315 318 316 314 315 315 315 316 316 317 319 320 321 326 330 328 324 324 324 325 326 326 324 327 337 343 340 336 333 331 335 337 328 325 330 328 324 328 332 330 330 333 335 332 327 329 332 329 327 329 327 332 348 353 337 329 330 331 332 333 335 337 332 329 332 331 330
303 303 302 302 302 302 302 302 303 303 303 304 304 303 303 304 305 308 310 311 313 314 313 314 314 314 314 314 315 316 317 317 319 322 324 324 323 321 320 323 327 327 327 332 342 341 333 331 331 331 336 339 329 326 333 330 324 327 333 332 331 335 336 330 326 330 332 329 328 327 330 340 347 343 333 328 328 330 331 334 338 335 330 330 332 331 330
303 303 303 302 302 302 302 302 303 303 302 302 303 304 303 304 306 308 308 310 312 313 312 311 311 311 312 313 314 315 315 315 318 320 321 324 322 318 320 325 327 327 328 331 336 335 329 331 333 331 332 335 333 331 332 331 330 333 334 331 329 331 334 332 328 329 331 332 331 328 332 339 336 331 330 328 329 333 336 339 336 329 329 331 330 329 330
303 303 303 302 302 302 302 302 302 302 302 301 302 303 304 305 307 308 309 310 310 310 309 307 308 310 312 312 313 314 314 314 316 316 318 320 318 318 328 336 329 325 329 331 334 333 328 332 335 329 327 332 334 331 331 332 336 333 330 333 334 330 330 332 331 330 331 330 327 327 334 338 331 329 333 333 334 337 336 332 329 328 330 330 327 329 330
303 303 303 302 302 302 302 302 302 302 302 301 302 303 304 306 307 308 308 309 309 309 309 309 309 311 312 313 313 312 312 312 314 314 315 316 316 319 328 331 324 324 329 331 333 332 328 333 335 328 328 333 331 329 329 329 332 333 332 335 336 332 331 332 332 334 332 329 331 337 340 336 330 333 338 337 335 335 331 329 330 328 328 327 328 329 328
303 303 303 303 303 303 302 302 302 302 302 302 302 302 304 306 308 308 308 308 308 309 309 308 308 308 309 310 309 309 310 310 311 313 312 313 314 316 320 320 319 323 327 327 331 331 329 332 335 331 333 335 331 334 336 328 329 339 338 331 331 336 339 337 337 341 341 338 343 344 336 329 327 331 334 331 329 330 330 330 330 328 327 328 327 326 327
303 304 303 303 303 303 302 302 302 302 302 302 302 302 303 305 307 307 307 307 306 307 306 306 306 305 304 306 307 309 311 312 312 313 312 313 313 314 316 317 318 322 325 324 326 327 326 330 333 332 336 338 332 334 337 330 333 341 336 330 333 333 331 332 337 342 340 334 334 333 329 328 329 328 329 329 329 331 330 328 328 328 327 326 326 327 328
303 303 303 303 303 302 302 302 302 302 302 301 302 303 303 304 305 306 306 306 306 307 307 307 307 307 307 309 310 312 313 312 312 313 314 314 314 313 315 316 317 321 324 320 320 321 323 327 330 330 334 337 331 332 334 332 336 337 332 336 339 329 326 334 337 334 332 331 331 331 328 329 328 326 327 329 328 329 329 326 326 327 326 326 327 327 327
303 304 303 303 303 302 302 302 302 302 301 302 302 302 302 304 305 306 306 307 308 308 309 308 308 307 308 309 309 310 312 311 311 313 313 314 314 314 314 315 315 317 317 315 317 318 320 324 329 330 331 332 329 332 334 331 333 333 331 337 338 328 327 335 334 332 335 335 332 329 326 326 327 326 326 327 326 328 327 325 325 325 326 326 326 325 325
303 303 303 303 303 302 302 302 302 302 302 302 302 302 302 303 305 306 307 307 307 308 308 308 308 307 307 307 306 308 310 310 311 312 313 313 314 314 314 314 314 314 314 314 316 316 317 322 327 329 331 331 327 328 330 327 328 329 329 333 333 327 327 329 331 338 342 332 324 325 327 326 327 326 326 326 326 326 325 325 325 325 325 325 325 324 325
303 303 303 303 303 302 302 302 302 302 302 302 302 302 302 303 304 306 307 307 307 308 308 309 309 307 306 307 307 308 309 311 311 311 312 312 313 313 314 314 314 314 314 314 315 315 317 321 324 325 328 329 327 326 328 327 326 325 327 330 328 326 329 330 330 336 342 333 324 325 330 329 326 325 326 327 326 326 326 326 325 325 324 324 324 324 324
303 303 303 303 303 302 302 302 302 302 301 301 301 301 302 303 304 304 305 306 307 308 308 307 307 307 306 306 306 307 309 311 312 311 311 312 312 313 313 313 314 315 315 314 315 317 318 319 320 322 325 326 326 326 327 325 323 324 328 329 325 324 329 330 327 329 334 332 326 324 328 329 326 324 326 325 325 326 325 324 323 323 323 323 323 323 324
303 303 303 303 303 302 302 302 302 302 301 301 301 301 303 305 305 304 305 306 306 306 307 307 307 306 306 307 306 306 308 310 310 310 311 312 313 313 314 314 314 315 315 315 314 316 317 318 318 320 321 321 324 326 325 324 326 328 329 326 323 323 325 324 325 327 327 326 325 324 325 326 324 324 324 324 323 323 323 322 323 323 323 323 324 323 323
303 303 303 303 303 303 303 303 302 302 301 301 302 302 304 306 306 306 306 306 306 306 307 307 307 306 306 306 306 306 307 308 308 308 309 310 312 313 314 314 314 314 315 316 315 315 316 317 317 318 318 318 321 324 324 324 326 328 326 322 322 323 323 321 323 324 324 324 325 324 324 325 324 324 323 322 322 322 322 323 323 323 324 323 323 323 323
303 304 303 303 303 303 303 303 302 302 301 301 302 302 304 306 307 306 306 306 306 306 307 307 307 307 307 307 307 308 310 311 311 311 310 309 310 311 312 313 314 315 315 315 316 316 316 317 317 318 319 319 321 324 324 324 325 325 324 322 322 323 323 322 322 322 323 324 323 323 323 323 323 323 322 322 323 322 323 324 324 323 323 323 323 323 324
304 304 304 303 303 303 303 303 302 302 302 302 302 302 304 306 308 307 306 306 306 305 306 307 308 308 308 308 308 308 309 311 310 310 312 311 310 310 310 311 313 315 315 315 316 316 316 317 317 317 318 319 321 323 324 324 325 324 323 322 323 322 322 322 321 321 321 321 322 322 322 322 322 322 322 323 324 323 323 324 324 323 323 324 323 324 324
303 304 304 303 303 303 303 303 302 302 302 302 302 302 302 304 306 306 306 305 305 305 306 307 308 308 308 309 309 308 309 311 311 311 312 313 312 311 311 311 312 314 315 316 317 317 317 317 318 318 318 318 319 322 323 324 323 322 322 322 322 321 321 321 322 321 322 322 321 322 322 322 322 322 322 323 323 323 323 324 324 324 324 324 324 324 325
304 304 304 304 304 304 303 303 302 303 302 302 302 303 302 302 303 303 304 304 304 304 305 306 307 308 308 309 310 310 310 311 312 312 312 313 313 312 312 312 313 314 315 316 316 317 317 318 318 319 319 319 319 321 322 322 322 322 323 322 322 322 320 320 321 321 321 321 321 320 321 322 322 323 323 324 324 324 324 324 324 325 324 324 324 325 325
304 304 304 304 304 303 303 303 303 303 303 302 302 303 303 303 303 303 303 304 305 305 306 307 307 307 307 307 309 310 309 310 311 312 313 314 314 313 313 313 314 316 317 316 316 317 318 318 318 319 320 320 321 321 321 320 321 322 323 323 323 322 321 321 321 322 321 321 321 321 322 322 323 324 324 324 324 325 325 324 324 325 325 324 325 325 325
304 304 304 304 304 303 303 303 303 303 302 303 303 304 305 305 304 304 305 305 305 306 307 308 308 308 307 308 308 309 309 311 312 313 315 317 317 315 313 314 316 317 316 316 317 318 318 318 318 320 320 320 321 321 320 319 320 321 321 321 322 323 322 321 321 322 321 321 322 322 323 324 324 324 324 324 325 325 325 324 324 325 324 325 325 325 325
304 304 304 303 303 303 303 303 302 302 302 303 304 305 305 305 305 305 305 305 305 305 306 307 308 308 308 308 309 310 311 312 312 313 315 317 317 316 315 315 316 317 317 318 318 317 318 318 319 319 320 320 320 320 319 320 321 321 320 320 321 321 322 322 321 321 322 322 323 323 323 323 324 324 324 325 324 324 324 324 324 324 324 323 323 323 323
304 304 304 303 303 303 302 303 303 303 304 304 304 305 305 305 305 306 306 306 306 306 306 305 306 306 306 307 308 308 309 310 311 312 314 315 316 317 318 317 317 317 318 320 319 317 318 320 319 319 320 319 319 319 320 320 320 320 320 321 321 321 321 321 321 321 322 323 323 323 323 323 323 324 324 323 323 323 323 323 323 323 322 322 321 321 321
304 304 303 303 303 302 303 304 304 304 305 305 304 305 305 305 306 307 307 307 307 307 307 306 306 306 306 306 306 307 307 308 309 310 312 314 316 319 319 319 318 318 319 320 320 317 318 319 319 320 320 319 318 319 320 319 319 320 319 320 320 320 320 322 321 321 322 322 322 322 322 322 323 323 323 322 322 322 323 323 322 322 321 321 321 320 320
304 303 303 303 303 302 303 305 305 305 305 306 305 305 306 306 307 308 308 308 308 308 308 307 307 307 306 306 307 307 307 308 309 310 312 314 315 317 318 317 317 319 320 319 318 317 319 320 320 320 320 319 318 319 319 319 320 320 319 319 320 320 320 320 321 321 321 322 322 322 322 323 322 323 323 323 323 323 323 323 322 322 321 320 320 319 319
304 303 303 303 303 302 303 305 305 305 305 306 306 306 306 307 307 307 308 308 309 309 308 308 308 308 307 307 307 307 308 308 308 310 313 316 315 316 317 318 317 319 320 318 315 319 324 324 321 319 319 318 318 318 319 319 319 319 319 319 319 320 320 321 321 321 322 323 323 323 323 323 323 323 323 323 323 323 322 322 322 322 321 320 320 320 320
303 303 303 303 303 303 303 304 305 304 305 305 306 306 306 306 307 307 308 308 309 309 308 308 308 308 308 308 308 308 309 310 309 311 315 317 317 317 319 318 317 318 318 317 316 321 324 321 319 319 318 317 317 318 318 319 319 319 320 319 319 320 321 320 321 323 323 323 323 323 322 323 323 322 322 323 322 322 322 321 321 321 320 320 320 320 320
303 303 303 304 304 304 304 304 304 305 305 306 306 306 306 306 307 307 308 308 307 307 308 308 308 309 309 309 309 309 310 311 312 313 315 317 317 317 318 317 317 317 318 319 322 324 321 319 320 321 320 319 320 320 320 320 320 320 320 321 321 321 321 321 322 323 323 323 323 323 323 323 322 322 322 322 321 321 321 321 320 320 320 320 320 320 319
303 303 303 304 304 304 304 305 305 305 305 306 306 306 307 307 307 307 307 308 308 308 308 308 309 311 311 310 309 309 311 313 313 313 313 315 316 317 317 317 318 318 318 322 324 323 319 318 321 321 321 323 324 323 322 322 321 320 321 321 321 321 322 322 322 322 322 322 322 322 322 322 322 322 321 321 320 320 320 320 320 321 320 320 320 320 319
303 303 303 303 304 304 304 305 305 306 306 306 306 306 307 308 308 308 307 307 307 309 309 309 309 310 311 310 310 311 312 312 312 312 313 314 316 316 316 317 319 319 319 322 323 321 320 322 323 322 321 324 324 322 321 322 321 320 321 322 322 321 322 322 321 321 322 322 321 322 322 322 322 321 321 321 320 320 320 320 320 320 320 320 320 319 318
303 303 303 303 304 304 304 305 306 306 307 306 306 306 307 307 307 307 306 306 308 310 311 311 311 311 311 311 311 312 311 312 313 313 312 312 315 316 316 317 318 318 319 320 320 319 320 324 324 322 322 323 322 321 321 321 322 322 322 322 322 322 321 321 321 321 321 321 322 322 322 321 321 321 321 321 320 319 319 319 319 319 319 319 318 317 318
303 303 303 304 304 304 304 305 306 306 307 306 306 306 306 306 306 306 306 307 309 311 311 311 311 311 311 311 312 312 312 312 314 314 313 313 315 316 315 316 317 318 318 319 319 320 321 322 322 321 321 322 322 321 320 320 320 322 322 321 321 321 321 321 322 322 321 322 321 321 321 321 321 321 321 320 319 319 319 319 318 318 319 318 317 317 318
303 303 304 305 305 304 304 305 305 305 305 306 306 306 306 306 306 308 309 310 310 311 311 311 311 312 312 311 312 312 312 312 313 313 314 315 315 315 314 315 316 316 317 319 321 323 323 321 319 319 321 321 321 321 320 319 320 321 322 321 320 320 320 322 322 322 322 322 321 321 321 321 321 320 320 320 319 319 319 319 318 318 317 317 317 317 318
303 304 304 305 305 305 305 305 305 305 305 305 306 306 306 307 308 308 309 310 310 309 310 310 311 312 312 312 311 312 312 313 313 313 315 315 315 315 315 316 316 316 318 320 322 323 322 320 318 319 320 320 320 320 320 320 320 320 321 322 322 322 322 323 322 322 322 322 321 321 321 320 320 320 319 319 319 319 319 318 318 317 317 317 317 317 317
303 304 304 304 305 305 305 305 306 306 306 306 307 307 308 308 308 309 309 309 308 307 308 309 310 311 311 311 310 310 311 312 313 314 315 316 315 315 315 316 317 319 321 321 320 320 321 321 320 320 320 319 318 319 319 319 320 320 321 321 322 322 322 322 321 321 321 320 320 320 320 319 319 319 319 319 319 319 319 318 318 317 317 317 317 317 317
303 303 303 304 305 305 305 306 306 307 306 306 306 307 307 308 308 308 308 308 307 308 309 310 311 311 311 311 310 311 312 314 314 315 316 316 316 315 315 317 320 322 321 319 318 319 321 321 320 319 319 319 319 318 317 318 320 320 321 322 322 321 321 320 319 319 318 319 318 319 319 318 319 318 318 319 320 320 319 318 318 317 317 316 316 316 316
303 303 303 303 304 304 304 304 305 305 305 305 306 306 307 308 308 308 307 307 308 308 309 310 311 310 310 311 311 312 313 314 315 315 316 318 318 318 318 320 321 320 318 317 318 319 320 320 319 318 317 318 318 318 317 318 320 321 322 322 321 320 319 318 317 318 318 318 318 318 318 318 318 318 318 318 319 318 317 317 316 316 316 316 316 316 316
Wind_Speed
20 21 21 21 22 22 22 23 26 25 24 20 16 17 14 8 8 8 12 7 3 3 1 3 3 2 5 7 9 12 9 5 7 8 3 1 1 1 1 2 2 3 2 1 1 1 1 2 1 1 1 2 5 5 8 13 10 6 2 1 2 2 4 4 1 4 3 5 4 3 3 4 4 1 1 4 3 3 5 5 3 3 1 1 2 1 6
20 20 21 21 21 21 21 21 23 25 25 24 23 20 16 14 14 10 9 7 7 3 1 2 3 4 5 6 8 12 11 8 9 7 2 1 0 1 2 2 3 4 2 2 2 3 2 3 3 2 2 3 8 11 13 12 6 3 2 3 1 2 2 4 3 3 5 6 6 5 5 3 2 3 3 2 4 5 3 2 4 1 4 5 4 3 6
20 20 20 20 20 20 20 19 20 22 23 23 23 20 16 13 10 8 5 4 7 7 5 4 3 3 4 5 7 9 8 9 12 10 5 3 1 2 3 4 2 3 2 1 2 2 4 1 4 3 2 2 5 11 15 13 7 5 5 7 5 3 3 4 5 3 2 2 3 3 3 1 1 3 4 1 4 7 3 2 4 1 4 6 5 4 6
20 20 20 20 20 19 19 18 18 19 20 20 19 16 12 7 3 6 9 7 2 6 5 2 3 3 4 5 6 5 4 7 14 11 7 6 3 2 3 4 5 4 3 4 3 2 2 3 1 1 1 1 1 8 14 14 10 9 11 10 6 4 2 3 6 7 7 7 7 5 2 2 2 4 5 5 4 6 5 3 2 4 4 3 5 6 4
19 20 20 20 19 18 18 18 16 16 17 17 16 13 9 4 2 4 6 6 7 7 8 11 8 5 6 3 4 5 4 5 8 5 3 4 2 1 1 1 1 1 2 3 3 4 4 2 2 2 2 1 1 4 10 11 10 10 9 6 5 5 1 1 6 6 7 8 7 5 2 3 5 5 6 8 7 4 6 4 5 5 5 4 8 6 6
19 19 19 19 19 18 17 16 15 15 14 12 12 11 7 3 4 6 6 4 3 5 8 11 9 8 8 4 4 5 5 4 3 3 4 6 2 1 3 2 2 4 2 1 2 3 5 4 1 2 1 1 2 3 4 2 6 8 5 3 5 6 1 4 4 3 5 5 4 4 2 3 4 4 6 9 8 5 5 7 7 7 6 8 9 9 9
18 19 18 18 18 17 17 16 15 14 11 8 9 9 7 6 5 7 9 6 5 7 12 13 9 7 7 3 3 4 4 5 5 2 3 6 3 2 3 3 5 5 1 3 2 2 1 3 3 1 2 1 2 2 3 2 2 5 4 2 3 5 1 4 4 0 3 3 3 2 1 2 4 6 8 10 10 9 7 7 7 9 9 11 9 9 11
18 18 18 17 17 16 16 15 14 13 8 3 7 9 9 9 6 10 13 9 9 12 13 10 7 5 5 3 4 5 4 5 6 3 2 3 3 2 3 6 6 6 2 4 1 3 2 3 5 4 4 1 1 2 1 2 1 2 3 1 1 2 3 4 3 3 5 5 3 3 4 3 4 6 8 9 9 8 6 5 5 7 8 8 5 6 8
18 18 17 17 16 15 15 14 13 13 8 1 3 7 7 6 4 7 10 7 6 10 11 8 5 4 4 5 6 7 7 9 10 6 3 3 2 2 5 7 5 3 5 6 2 3 3 1 4 4 6 6 5 4 4 5 3 2 2 1 1 3 1 0 5 4 4 5 4 5 6 5 5 6 6 7 7 5 5 5 3 5 5 2 2 3 6
17 17 16 16 15 13 14 13 11 11 8 3 3 5 6 4 1 3 7 4 4 7 8 6 4 3 6 9 8 7 10 16 15 7 6 7 5 5 6 4 1 4 6 3 3 6 6 3 4 4 4 8 7 5 6 9 6 3 2 2 2 4 4 2 3 3 4 5 1 2 4 6 5 6 4 5 6 6 7 5 1 3 3 5 4 5 5
17 16 15 15 14 13 12 12 10 10 8 5 6 8 10 9 6 7 9 4 4 8 7 4 4 6 10 14 12 10 12 17 16 8 5 8 10 12 10 4 3 3 4 2 3 3 5 4 6 9 9 10 12 11 9 9 8 7 5 3 1 4 5 2 3 3 4 6 2 3 3 3 6 7 4 3 5 7 9 6 4 5 3 5 4 4 6
15 15 14 13 13 11 11 10 9 8 8 6 7 8 9 10 9 9 8 2 4 8 6 3 6 9 13 16 13 12 13 13 15 15 9 7 11 13 10 8 5 2 4 4 2 1 1 2 5 8 11 12 12 11 10 7 5 7 8 6 4 4 5 2 2 4 3 3 4 2 5 6 7 7 6 7 8 7 8 6 4 4 4 8 8 8 9
14 14 14 13 12 10 10 9 8 7 5 4 4 5 4 6 6 7 6 2 2 5 5 6 12 15 17 17 14 14 16 17 20 20 13 9 12 12 13 12 8 8 9 4 3 4 2 2 4 4 6 8 8 7 7 5 4 3 4 8 8 5 4 3 2 3 2 1 2 4 7 6 5 8 8 7 6 4 4 3 4 5 3 9 11 8 8
12 13 13 12 12 11 10 9 7 6 4 2 2 2 1 2 4 6 7 3 2 7 8 6 10 15 15 16 15 13 15 20 22 19 15 14 12 11 17 18 13 13 12 4 5 6 3 2 4 4 5 6 5 5 5 4 4 4 3 3 7 7 5 2 2 3 3 3 3 3 4 6 6 7 7 5 4 4 5 3 2 6 4 6 11 9 7
12 12 12 12 12 11 9 8 7 6 4 2 1 0 1 1 2 4 5 4 2 6 6 4 8 12 12 12 14 11 9 11 14 14 15 15 11 12 19 20 14 11 10 5 5 4 3 3 4 2 3 2 1 3 4 3 3 5 7 7 5 7 5 5 5 3 3 4 2 2 3 5 6 8 8 7 7 6 5 5 1 7 7 4 12 11 9
12 12 12 11 11 11 9 8 7 6 5 3 1 1 2 2 1 2 1 4 1 1 4 9 11 11 9 9 13 12 7 5 7 8 8 11 15 19 21 18 13 10 7 4 4 3 3 3 3 2 2 2 3 3 2 2 3 4 5 6 4 4 3 5 6 2 3 5 3 3 4 5 7 9 9 8 5 5 7 4 3 6 5 5 13 13 13
12 12 12 11 11 11 10 9 8 7 6 4 1 2 3 4 3 2 0 3 3 5 5 10 12 11 9 7 9 12 9 7 6 4 4 7 14 20 25 23 16 12 8 3 2 4 4 2 2 2 2 3 2 2 3 2 2 4 5 5 2 3 4 4 6 4 5 6 4 3 3 5 7 7 5 6 3 5 7 1 7 5 0 8 16 17 17
12 12 12 11 11 11 11 9 8 8 7 5 2 2 3 4 3 2 1 3 5 6 2 5 9 10 8 6 6 8 9 8 6 4 6 7 7 16 27 24 14 11 8 2 2 3 3 2 2 3 3 4 1 3 4 3 3 4 3 3 2 2 2 3 5 5 6 6 4 3 3 5 6 4 2 3 1 3 3 5 7 5 7 12 16 18 18
12 12 12 12 11 11 11 9 9 9 8 7 4 1 3 4 4 2 2 5 5 8 9 6 8 9 8 7 7 6 7 8 6 5 4 3 11 23 22 9 7 12 11 5 3 2 3 2 2 3 2 4 2 3 4 4 4 4 3 3 3 2 1 1 2 4 4 4 3 3 4 5 5 3 2 3 1 4 5 5 7 9 12 12 11 11 12
12 12 11 11 10 10 10 9 8 9 10 9 6 1 4 7 7 4 1 4 8 17 20 15 10 8 8 8 7 8 9 8 6 6 2 4 16 25 12 1 8 14 10 5 4 1 1 2 3 2 3 4 3 3 3 4 4 4 4 4 4 5 4 3 3 4 3 2 3 2 5 6 6 5 2 2 3 6 7 8 9 9 10 9 7 7 8
12 12 11 10 9 9 9 9 8 9 11 10 7 2 5 9 10 7 6 5 8 14 13 7 5 7 8 8 9 10 12 12 11 10 10 13 15 12 3 3 10 9 3 4 3 2 3 3 3 1 1 3 2 3 4 4 5 6 5 4 4 4 4 3 4 3 4 4 5 5 5 7 8 7 3 3 8 11 12 13 11 8 7 6 5 5 5
12 11 10 9 9 9 9 8 8 8 10 10 8 4 3 9 10 8 9 10 11 15 16 13 13 15 14 13 13 12 12 13 13 13 16 19 16 7 6 10 12 7 4 6 3 1 4 3 2 3 2 2 2 3 4 4 5 6 2 3 5 7 7 6 4 3 4 4 5 7 9 11 10 7 7 10 13 14 14 12 10 7 6 5 5 5 6
12 11 10 9 9 9 9 8 7 7 9 10 9 6 1 5 8 7 8 10 13 19 23 22 21 20 18 15 11 8 8 10 11 11 14 18 16 11 10 12 11 8 5 5 5 3 4 3 3 3 3 3 2 1 1 2 4 4 3 2 4 4 4 5 3 3 3 1 3 7 9 10 10 10 10 11 14 16 15 9 6 5 5 4 5 6 7
13 11 10 9 9 9 8 8 7 7 9 10 8 6 4 2 5 5 6 7 10 14 16 14 13 12 11 8 7 8 8 9 10 10 11 14 16 12 9 9 7 7 9 12 13 10 6 5 5 4 4 4 3 2 2 3 4 2 2 3 4 5 4 3 2 2 3 2 3 1 3 4 8 11 11 9 10 14 12 7 6 8 8 6 6 5 5
13 12 10 9 9 9 8 7 7 8 8 9 8 6 5 2 3 3 2 3 7 8 7 8 9 7 7 10 12 12 10 11 13 12 9 13 19 19 18 17 16 16 19 21 19 13 7 5 4 4 6 6 5 3 2 3 4 1 1 2 3 4 4 3 3 1 3 3 2 8 17 15 11 12 13 12 12 13 11 11 13 13 12 10 8 7 4
14 12 10 10 9 9 8 7 7 7 7 8 8 6 4 2 2 3 2 3 7 6 5 8 11 10 11 15 14 12 13 13 14 15 13 13 16 20 23 26 26 25 25 22 19 17 12 5 3 3 4 5 6 4 2 3 4 2 2 4 3 1 1 1 2 2 1 0 4 12 17 15 14 15 15 15 16 16 14 14 12 10 10 9 6 5 5
14 13 11 10 10 9 8 7 7 7 7 8 8 7 6 2 2 5 4 1 4 5 4 7 13 18 20 16 9 8 12 13 12 13 14 14 14 16 20 23 23 24 23 20 18 17 12 7 5 4 7 11 12 9 7 7 3 1 3 4 2 0 1 1 4 4 2 2 3 6 5 3 7 11 12 10 10 10 10 9 8 8 7 7 6 7 7
14 13 12 12 11 10 9 8 7 7 7 7 8 8 6 2 1 5 6 2 3 7 9 15 23 26 24 18 12 9 10 12 13 14 15 15 15 15 17 19 20 20 20 16 13 10 7 6 7 6 7 11 12 8 8 7 3 2 4 5 5 4 4 5 4 2 3 6 7 6 5 7 11 12 11 9 7 6 6 6 7 7 6 6 7 8 7
14 13 13 12 12 11 9 8 7 7 6 7 7 6 4 0 2 5 6 3 4 9 13 18 21 18 16 17 19 16 13 14 17 18 18 18 18 17 17 18 17 18 20 18 15 10 8 10 12 12 12 12 8 4 6 5 3 4 5 7 7 6 2 2 5 5 4 7 11 11 8 10 13 11 8 6 5 5 5 5 5 6 6 6 6 7 7
13 13 13 13 12 11 9 8 8 7 6 6 7 6 2 1 4 7 8 4 4 8 9 10 10 11 18 24 25 20 13 12 15 19 20 21 21 21 19 19 18 19 19 17 14 11 9 11 14 16 20 19 10 3 4 5 4 5 8 9 9 5 6 8 6 4 5 9 12 10 8 11 13 8 3 3 3 4 5 6 6 6 5 5 4 5 6
13 13 13 13 12 11 10 9 8 7 7 8 9 6 1 1 3 6 7 3 4 7 8 9 11 15 21 23 21 18 15 12 12 14 16 18 21 24 23 21 21 20 19 19 18 15 11 11 11 12 17 19 12 5 4 6 5 5 8 11 11 4 7 13 11 9 9 12 11 7 6 10 11 8 5 5 6 6 7 7 5 3 3 2 2 3 4
14 14 13 12 11 11 11 10 9 8 8 10 12 10 5 2 3 6 6 2 4 6 6 7 8 8 10 15 20 19 16 14 15 16 16 15 16 19 22 24 24 22 21 21 19 14 12 14 14 13 18 19 12 5 5 7 7 6 9 12 13 8 3 6 5 4 6 10 9 7 8 12 13 11 10 10 8 7 6 5 3 2 1 0 1 3 4
15 15 13 12 12 11 11 10 10 9 10 13 15 14 9 7 7 7 7 7 10 10 6 5 4 2 4 15 22 17 10 10 13 14 14 15 14 14 16 21 24 23 21 19 14 11 13 15 13 13 19 21 13 5 4 7 9 10 13 16 18 20 20 14 7 5 7 10 10 8 10 15 15 13 13 12 9 7 7 5 4 4 3 1 1 2 5
16 15 14 13 12 11 11 10 10 10 12 15 15 11 8 9 11 11 11 12 11 9 6 5 4 3 4 11 13 8 9 13 14 11 10 14 15 13 14 16 16 16 16 17 16 12 11 13 12 10 12 14 12 8 7 10 14 15 15 17 20 23 24 20 10 5 6 12 13 12 11 15 17 16 15 13 11 8 7 5 4 3 2 1 1 2 4
16 16 14 14 12 11 11 11 11 13 15 15 12 6 2 3 7 8 9 9 8 5 4 4 4 3 3 4 6 7 12 17 17 14 13 15 15 15 16 12 8 8 11 14 14 11 8 11 13 10 7 8 8 7 7 10 14 16 16 18 20 20 18 13 6 1 2 9 11 9 11 16 17 15 12 10 8 7 5 4 3 2 1 1 1 1 2
16 16 15 13 12 11 11 11 12 14 13 8 3 1 2 1 2 3 5 8 8 6 5 3 2 2 1 1 5 10 14 15 17 19 16 13 12 12 14 10 5 8 12 11 8 7 10 14 13 8 5 7 8 9 12 15 16 18 20 21 23 23 19 12 8 9 10 13 14 15 16 15 13 11 10 9 8 6 5 5 4 2 2 3 4 3 2
16 16 15 13 12 11 12 14 13 11 7 2 1 1 0 2 3 3 6 9 11 12 10 5 3 5 4 3 5 9 11 11 14 16 14 11 11 10 9 6 3 6 8 7 6 9 13 15 12 6 6 9 13 17 22 22 20 22 24 25 26 26 19 13 14 16 17 18 17 16 14 12 12 12 11 10 8 5 4 5 5 3 3 4 4 4 5
17 17 16 14 12 11 11 11 8 3 1 3 4 3 3 4 4 4 7 8 9 11 11 7 7 11 9 6 9 12 9 9 11 9 7 9 10 7 5 4 3 2 2 4 9 13 13 10 6 5 8 14 20 27 30 30 28 26 24 22 23 22 17 17 19 20 20 20 18 17 16 15 15 14 12 10 9 7 7 8 6 4 5 5 6 7 8
18 18 16 15 14 13 9 4 2 5 4 4 3 2 3 5 3 2 6 7 5 7 10 8 11 17 15 8 12 19 16 9 7 5 3 6 7 4 2 5 5 4 4 4 6 9 7 4 3 5 7 10 17 26 30 31 33 33 30 26 24 20 17 19 22 21 19 18 18 17 15 14 15 15 13 12 12 11 9 7 6 6 6 6 7 8 9
20 19 17 16 17 15 9 4 4 5 4 5 4 2 3 4 4 3 4 4 3 5 8 8 10 17 20 15 11 14 14 11 8 6 5 6 7 4 2 3 3 2 2 4 4 5 4 2 3 6 7 7 14 24 29 30 30 30 30 29 27 23 19 20 23 22 19 16 16 15 14 14 15 15 14 13 13 11 8 6 5 5 6 7 7 7 8
21 19 18 17 16 13 11 9 6 4 3 4 4 2 1 3 4 3 3 2 2 4 7 7 6 9 16 18 16 12 13 13 13 11 8 6 6 4 1 1 2 1 2 4 5 4 2 1 3 6 7 8 13 20 24 27 29 30 30 29 25 20 16 18 20 20 19 20 21 19 17 17 16 14 12 11 9 7 6 5 3 3 5 5 4 5 5
21 19 17 14 12 12 11 10 7 4 3 2 2 1 2 2 3 3 3 3 3 3 5 7 6 5 8 12 15 14 11 10 10 9 6 3 4 4 2 0 2 2 3 4 6 4 2 3 4 6 8 14 20 22 22 26 30 30 29 27 24 19 18 20 20 20 20 22 22 20 19 18 15 12 9 8 6 5 5 5 3 1 2 1 2 3 4
20 19 15 11 9 10 8 6 6 5 2 1 2 1 1 1 2 2 3 4 4 4 4 4 3 3 4 4 6 8 7 5 5 6 4 3 2 2 1 0 2 3 3 4 3 2 4 4 4 6 8 11 14 14 15 17 19 16 14 17 21 23 24 25 25 24 22 22 21 20 17 15 13 11 9 7 7 7 7 6 4 2 0 2 3 3 4
20 18 13 8 7 8 6 4 6 6 3 1 3 3 2 3 3 2 2 4 4 3 3 2 1 2 3 5 4 4 4 3 2 3 4 4 3 1 1 2 3 3 4 3 1 3 4 4 4 5 4 4 5 6 9 15 20 21 20 21 24 26 26 26 26 25 22 20 18 16 14 14 13 12 10 9 8 7 7 7 5 2 2 3 3 4 6
17 15 10 4 3 5 4 2 3 4 2 2 3 2 2 3 4 4 5 7 6 5 5 4 2 3 5 5 4 3 3 2 2 2 2 2 2 1 2 3 2 2 2 2 2 3 4 3 3 7 8 8 11 14 16 20 24 27 27 24 23 23 23 22 21 20 19 17 16 15 15 15 13 12 11 11 9 7 6 5 4 2 1 1 3 6 7
14 11 8 3 2 4 4 1 1 2 2 3 6 7 7 7 7 9 10 10 10 8 6 4 3 4 5 4 3 3 4 4 2 2 2 2 2 2 3 2 2 1 2 3 3 4 4 3 3 4 3 5 11 18 20 18 18 25 31 30 25 21 19 17 16 16 16 16 15 15 14 14 13 11 11 10 8 7 6 4 2 0 2 3 4 4 5
10 8 6 2 1 3 3 2 4 4 4 6 10 13 15 15 16 16 13 11 10 9 7 5 5 6 6 6 4 4 5 5 3 2 3 2 2 1 1 1 2 3 3 3 4 3 3 4 4 2 2 3 6 11 14 10 6 10 19 22 19 14 12 10 12 14 14 13 14 14 15 15 13 11 9 9 8 6 4 2 1 2 3 3 2 1 2
8 7 5 2 1 2 4 6 8 9 10 11 13 14 14 14 12 8 6 5 6 5 3 4 4 4 4 5 4 3 4 6 4 3 3 2 1 1 1 2 3 4 3 3 4 3 3 6 8 7 7 6 5 7 10 7 5 7 7 10 11 11 12 12 12 14 13 13 15 16 16 15 12 10 9 8 6 3 1 1 1 1 0 1 1 1 1
8 6 5 3 2 3 6 8 8 8 11 15 14 12 10 8 6 5 5 5 4 5 6 6 5 3 2 4 3 2 3 4 3 2 3 3 2 2 2 2 3 4 3 2 2 2 4 4 8 9 9 8 7 7 8 9 12 12 13 14 16 18 19 18 17 16 15 15 15 15 14 13 11 9 8 6 4 2 1 1 1 1 2 2 2 2 2
6 4 4 4 3 3 5 6 4 3 6 8 8 6 6 7 9 9 8 7 6 7 7 5 5 4 2 2 1 1 2 3 2 2 3 3 2 2 2 3 3 3 2 3 3 3 4 2 6 9 8 7 6 5 7 10 13 14 16 17 18 18 17 15 15 15 14 13 13 12 11 10 9 7 5 4 3 3 3 3 3 2 2 2 2 2 2
5 4 6 8 8 6 6 5 5 5 6 8 10 10 10 11 13 13 11 9 7 5 3 3 4 3 1 2 3 2 2 3 3 3 3 2 2 2 3 3 3 3 3 3 1 3 8 10 10 9 8 6 4 5 8 10 12 12 13 13 14 13 12 12 13 14 13 12 11 10 9 8 6 5 5 4 3 3 3 4 3 3 2 2 2 2 3
6 5 6 10 13 13 12 12 12 13 14 16 17 16 14 15 17 17 14 10 7 4 5 5 4 2 1 3 3 3 2 2 2 2 3 3 3 3 4 4 4 5 5 3 4 7 10 10 7 5 3 3 5 6 7 9 11 12 11 11 11 11 12 13 13 12 11 10 9 7 7 7 6 6 5 5 4 3 4 5 4 4 4 4 4 4 5
Wind_Direction
326 328 330 332 335 336 338 341 340 338 341 346 347 345 345 326 282 229 176 170 258 243 257 306 284 241 257 266 267 271 274 271 276 283 284 266 274 206 213 225 227 243 220 164 97 99 314 305 354 41 8 23 357 9 95 101 85 78 103 314 11 52 85 91 332 307 308 305 330 48 76 93 98 353 204 148 156 144 156 185 173 149 193 130 94 245 268
322 323 325 328 331 332 335 340 342 340 341 346 349 346 342 327 301 259 204 216 248 227 151 255 262 279 284 286 284 282 276 262 265 269 242 229 137 87 283 248 223 248 228 171 214 178 126 324 329 56 68 17 18 41 70 78 63 55 148 169 112 59 92 95 64 357 336 337 350 357 349 24 75 282 275 165 129 112 122 132 90 103 211 155 132 232 255
321 321 322 325 326 328 330 336 342 341 339 343 346 344 340 335 310 284 298 289 244 227 204 202 245 301 312 302 294 289 278 269 276 272 240 233 184 149 279 313 322 279 286 360 270 171 132 219 316 14 69 24 39 68 80 80 68 58 101 126 125 113 117 112 115 148 206 251 266 266 275 319 311 278 287 284 136 134 145 119 102 219 229 151 148 220 258
321 321 322 323 324 326 326 330 338 339 337 340 346 348 347 351 336 313 333 354 316 253 258 348 357 321 320 304 281 273 261 295 304 290 241 236 245 196 247 322 3 357 7 16 336 309 125 131 49 29 118 269 13 98 101 100 98 93 93 97 99 93 89 113 136 165 189 196 218 230 168 155 265 272 283 288 232 170 141 101 141 196 188 174 208 207 213
322 322 323 323 324 325 323 325 332 336 337 341 348 354 357 355 358 351 340 345 358 353 357 11 6 319 311 286 260 285 285 301 314 297 250 272 281 246 265 343 38 313 340 10 325 304 328 36 111 154 168 212 258 108 105 111 121 116 96 81 87 86 40 151 140 173 202 191 210 238 197 200 236 252 269 281 270 198 155 192 221 164 138 251 252 199 182
325 324 325 325 326 325 324 324 328 333 339 348 355 3 12 348 325 359 3 320 332 4 341 335 333 322 319 282 245 298 305 301 304 275 310 331 326 265 320 342 279 248 214 162 251 321 346 337 323 141 145 136 112 72 40 71 120 112 86 65 105 106 180 212 160 198 223 199 223 251 230 236 255 266 267 271 272 245 197 215 212 157 166 241 235 194 201
328 328 327 328 330 327 326 327 327 335 349 6 15 16 14 1 329 339 355 340 303 306 305 311 322 324 325 304 260 299 310 307 309 302 340 344 330 254 266 281 292 283 240 128 194 246 317 293 284 117 93 67 116 80 1 338 108 107 94 67 107 110 201 216 163 182 283 269 272 273 286 289 290 294 284 272 260 241 221 220 203 178 203 233 221 203 218
332 333 332 334 334 330 331 332 330 342 360 38 45 35 21 13 349 329 338 331 312 315 315 323 335 321 326 329 294 309 322 315 320 338 16 337 313 301 256 256 272 285 326 69 103 243 208 239 244 177 128 91 149 146 162 205 194 88 103 73 79 123 240 237 119 65 306 304 327 334 352 343 301 297 294 281 266 252 245 245 212 197 225 242 222 213 243
335 336 336 338 339 335 336 337 337 350 3 25 41 35 27 16 352 334 338 318 311 334 331 328 337 325 342 356 333 327 334 335 332 319 286 271 258 277 292 285 287 333 36 67 47 342 55 143 254 222 182 182 182 180 179 166 141 90 113 113 113 135 187 287 79 79 274 291 343 338 351 1 317 295 286 279 282 273 266 271 248 229 229 194 136 214 252
335 338 340 342 344 341 340 343 346 355 3 352 1 18 14 1 311 346 359 325 296 337 332 326 349 348 352 356 342 328 335 343 348 336 299 314 316 305 312 305 290 49 54 66 306 356 39 57 348 346 177 165 137 110 130 136 132 145 134 92 127 133 119 119 109 118 261 279 357 10 10 5 306 266 239 267 291 286 286 302 280 221 164 134 171 221 220
333 339 342 342 346 347 346 349 353 360 9 17 27 35 31 23 4 352 4 352 306 343 353 357 9 356 349 349 341 336 344 351 358 353 299 312 330 329 336 12 99 83 42 2 292 358 45 65 47 42 61 75 62 58 79 95 104 125 126 97 116 116 109 142 141 128 258 283 18 52 6 323 258 240 218 249 271 270 274 263 202 202 162 132 162 166 152
330 336 340 343 348 351 351 353 355 4 20 32 41 51 47 35 20 5 10 352 306 350 7 350 349 348 344 346 345 345 348 347 347 341 316 313 343 351 7 45 69 14 341 350 7 114 121 63 38 31 31 33 32 38 47 54 79 116 127 133 136 116 123 161 122 123 212 304 40 27 265 244 244 265 276 270 264 255 250 238 219 230 173 130 124 140 155
326 332 337 342 348 352 355 357 355 359 17 38 59 73 64 41 41 29 17 354 288 346 344 324 342 349 346 348 349 345 345 346 345 347 348 339 339 357 25 36 28 356 339 338 54 71 90 39 20 11 359 3 14 23 20 6 355 26 111 136 143 144 149 159 145 149 174 81 102 214 244 255 285 301 294 284 286 265 234 256 322 307 212 145 133 146 159
322 328 333 338 345 352 357 359 354 351 359 21 69 89 64 26 60 45 19 13 281 323 325 316 337 346 348 350 351 348 348 353 353 351 350 340 327 348 10 9 1 355 350 1 66 57 69 58 25 9 350 2 14 349 326 317 314 306 274 200 158 148 142 150 208 213 169 162 197 236 284 304 308 295 277 279 287 240 200 187 327 317 294 149 136 143 154
318 321 328 332 338 346 353 357 354 346 344 344 351 28 282 315 66 56 19 5 305 320 349 2 339 338 341 349 359 360 348 356 357 338 330 339 342 344 351 352 353 356 0 31 65 52 65 79 66 32 352 13 14 290 300 308 289 246 244 249 189 154 160 179 204 231 151 148 228 298 294 277 261 251 261 279 269 224 150 110 9 316 312 172 146 145 151
317 316 321 326 331 338 345 352 353 347 341 335 302 234 256 261 171 151 10 14 357 266 18 9 351 349 352 351 5 13 0 353 354 328 324 347 345 336 340 350 4 13 19 48 74 69 69 81 114 149 210 203 200 248 261 296 302 270 254 257 216 148 128 153 171 206 149 152 206 223 214 245 243 241 267 286 250 164 96 67 290 305 318 158 146 143 150
315 311 315 320 325 331 337 343 348 347 345 344 321 237 250 243 220 214 302 21 330 266 319 359 4 16 20 356 357 8 2 346 343 336 325 327 329 335 340 347 2 18 20 25 58 61 73 102 110 114 241 234 186 239 252 241 290 304 308 291 236 118 88 140 169 189 176 170 202 219 219 248 237 228 264 287 235 125 90 307 256 262 38 137 144 150 156
310 307 310 315 321 326 331 338 344 344 346 351 341 239 238 233 219 229 297 349 321 276 273 18 5 2 8 354 342 353 353 348 344 335 316 305 325 338 333 333 355 12 2 12 104 82 94 157 140 136 236 276 281 238 247 231 231 252 262 259 238 129 112 173 182 184 178 176 199 243 255 250 239 238 322 322 237 127 145 223 224 189 135 125 135 148 158
305 304 306 310 315 321 325 334 342 339 343 354 350 257 219 210 192 190 324 338 310 263 252 278 317 325 332 331 324 324 336 346 354 358 337 302 338 338 328 324 21 1 346 13 81 122 145 197 219 156 195 284 277 221 233 231 227 230 205 203 221 190 165 177 165 167 171 173 188 246 272 252 223 190 60 56 159 215 220 192 151 138 134 126 124 136 149
297 300 303 306 308 313 320 330 339 335 337 349 357 15 184 188 180 174 305 325 300 282 278 280 288 296 304 309 306 312 324 330 341 359 353 274 329 343 347 69 8 353 354 21 13 325 156 218 243 182 188 234 229 217 252 264 254 237 209 197 203 194 186 197 187 171 158 159 173 214 258 246 201 160 81 44 160 185 181 154 134 130 135 133 125 130 141
288 294 300 303 301 305 314 323 333 333 332 341 352 13 180 187 185 185 207 241 279 285 282 265 248 261 266 268 275 285 293 293 291 299 295 291 316 348 50 270 317 329 4 17 346 316 359 318 265 260 210 219 227 222 228 259 281 261 223 194 209 204 180 197 220 187 147 167 203 217 212 191 170 161 171 168 157 157 155 155 157 158 160 163 157 151 167
279 286 293 297 296 301 308 316 327 328 328 334 342 346 194 196 198 207 227 241 254 262 263 264 270 272 265 263 272 276 281 292 292 283 282 287 292 284 244 273 293 295 339 15 26 317 342 333 289 315 315 268 279 250 215 218 264 275 247 179 218 222 194 178 194 198 173 181 206 202 182 169 163 162 166 162 161 163 163 166 174 181 183 191 191 182 189
271 276 283 287 288 293 298 308 320 322 323 328 332 342 330 207 211 227 248 257 262 267 271 275 278 280 277 269 264 262 279 303 306 292 280 275 274 272 259 260 276 288 312 15 25 349 314 288 273 292 278 249 256 300 292 244 242 268 290 245 242 243 194 156 155 216 224 185 172 176 173 169 158 142 145 160 170 173 172 173 183 178 168 181 193 189 181
265 268 274 278 280 285 290 300 312 314 316 321 324 340 356 246 229 249 266 274 290 295 290 280 271 275 284 276 246 232 252 274 278 286 288 271 261 261 252 245 267 284 281 302 324 325 305 290 291 287 278 279 275 251 268 270 248 256 312 299 319 354 21 58 64 152 171 223 261 209 88 124 142 132 132 154 178 182 175 152 127 130 134 149 164 159 161
260 261 264 270 273 279 283 293 307 309 308 311 314 330 348 307 246 259 283 313 322 321 308 289 274 263 275 279 265 249 246 251 249 252 270 272 263 259 260 266 275 278 281 294 308 311 301 291 288 286 285 285 281 256 226 253 262 274 13 285 290 353 20 25 24 91 165 222 248 78 73 72 85 100 106 120 142 157 146 117 110 114 114 124 137 131 127
255 254 257 261 264 270 277 286 301 304 299 301 308 319 334 330 227 213 211 320 312 291 268 277 279 277 282 282 275 264 256 250 248 249 256 267 268 267 273 280 279 274 276 282 287 288 285 266 239 270 279 278 289 292 264 263 277 289 280 248 212 119 73 95 64 41 15 307 102 92 79 68 72 82 87 100 114 122 117 108 106 100 91 91 94 73 44
250 247 248 252 254 261 269 278 290 292 288 292 300 306 314 325 195 211 218 331 320 285 262 276 286 296 301 295 285 280 265 249 247 256 258 258 260 266 278 285 282 274 268 265 269 274 271 255 246 249 257 275 288 285 267 265 270 266 273 274 277 339 220 146 74 48 350 232 162 123 102 102 112 107 104 107 112 115 112 99 79 59 46 34 23 18 16
246 243 241 244 248 253 260 270 280 283 285 289 294 303 311 322 200 218 216 206 280 279 286 294 296 301 305 300 292 288 266 245 247 258 258 255 252 253 266 279 284 282 271 258 254 255 240 246 269 261 260 280 287 277 269 275 268 241 253 261 259 240 203 180 161 155 208 218 200 172 154 156 148 133 124 125 121 111 102 78 50 36 20 3 360 4 9
242 241 237 238 244 248 254 264 271 272 280 289 293 305 320 300 174 186 181 181 270 279 288 298 298 298 301 299 297 293 269 250 258 264 261 257 253 249 255 265 276 286 278 258 243 237 230 240 253 255 263 280 293 297 288 284 266 254 249 244 253 259 249 230 224 208 200 195 185 182 180 161 148 136 123 116 113 103 94 76 56 51 45 32 23 14 3
238 237 234 234 238 242 247 255 261 266 272 278 287 303 335 130 160 161 159 170 265 276 291 304 298 296 302 303 304 308 299 272 267 267 263 260 257 252 253 259 267 279 280 263 245 243 245 244 245 250 259 263 264 274 284 267 250 255 255 259 274 304 43 60 74 121 160 170 166 168 176 163 151 145 135 132 144 137 115 108 103 86 66 47 27 4 348
232 230 232 232 232 237 243 244 250 259 259 260 266 270 264 116 145 162 164 177 272 279 286 288 283 290 300 303 307 317 320 311 303 294 281 268 260 253 251 256 262 269 276 271 261 256 253 251 251 256 260 259 254 247 258 261 261 259 255 261 267 256 104 94 92 106 139 156 162 169 176 171 168 165 150 141 152 152 135 123 116 93 55 30 349 327 338
226 224 227 228 228 231 234 235 241 250 253 256 258 252 234 182 163 174 176 203 316 304 288 288 289 288 298 307 312 315 311 305 308 308 300 289 276 261 252 251 254 260 268 269 264 256 249 247 248 252 256 259 262 266 251 247 248 243 243 251 257 249 183 124 119 147 174 174 177 178 171 175 184 181 162 151 155 165 161 150 145 162 184 229 277 292 314
223 221 221 221 222 225 227 231 240 247 252 257 259 258 253 237 216 215 235 272 300 302 285 284 297 271 290 312 316 323 336 327 312 303 297 295 289 272 255 251 253 256 259 254 244 242 251 247 241 249 253 251 252 264 257 247 248 248 247 252 256 257 258 255 246 240 233 221 219 219 197 184 183 177 164 158 158 159 156 148 146 157 154 113 360 300 301
219 218 216 214 216 220 223 229 237 245 252 260 265 271 273 252 237 241 254 266 280 286 269 255 271 281 315 320 315 330 2 343 321 308 301 297 289 270 253 252 251 248 247 243 236 239 252 246 239 251 254 240 234 242 251 249 251 253 255 259 257 252 250 252 260 277 239 221 225 233 212 182 168 160 157 157 153 147 148 148 151 152 130 82 333 282 286
215 212 210 210 212 216 223 231 240 247 255 266 276 289 305 245 230 229 240 250 256 259 248 231 230 260 328 319 287 311 341 336 323 317 309 301 292 267 243 236 235 233 238 240 235 231 235 238 240 246 245 227 224 233 241 244 247 251 256 261 262 259 253 249 255 320 191 196 195 184 164 158 152 143 138 134 126 125 133 133 129 143 140 99 75 349 314
211 208 206 207 208 214 223 231 239 247 256 269 292 46 105 156 211 210 229 243 242 242 262 273 223 214 291 273 269 307 329 332 333 338 333 322 315 285 248 229 218 232 230 223 217 221 224 228 234 239 232 226 229 236 242 243 242 245 248 251 257 263 259 236 185 150 148 155 153 148 148 149 142 129 120 116 115 125 129 110 99 108 115 99 85 59 13
205 203 199 200 203 212 229 239 244 253 263 252 159 106 332 243 231 220 230 241 241 240 251 273 267 254 275 300 292 309 328 334 338 346 346 337 334 316 276 252 234 235 228 210 212 228 224 221 227 237 234 234 238 240 244 247 245 244 244 244 249 255 248 211 175 162 154 147 144 146 148 144 137 133 131 126 125 133 123 104 95 94 86 73 51 19 1
199 197 194 195 198 207 229 244 243 234 142 151 176 238 261 235 229 229 222 225 233 233 230 233 248 253 259 274 272 273 298 332 334 335 337 332 332 331 314 315 331 321 290 244 229 227 222 218 227 239 239 244 245 243 243 247 250 249 248 246 247 247 232 202 186 175 163 156 157 162 159 149 140 138 137 134 131 124 112 103 94 75 54 36 14 356 342
193 190 187 193 202 207 219 235 160 126 132 161 188 239 233 209 210 217 201 201 213 220 214 219 237 238 233 239 261 262 265 287 311 306 305 317 319 327 354 347 347 348 332 297 240 224 220 222 239 240 240 246 245 242 242 245 247 248 252 254 258 258 239 212 202 200 198 194 186 177 168 158 150 149 150 148 139 126 114 100 78 53 32 16 4 345 327
188 187 187 199 208 207 206 196 143 134 159 188 200 233 232 205 204 198 181 187 210 210 208 220 238 235 228 227 248 264 259 249 251 268 280 282 285 294 328 336 339 352 308 281 262 246 240 249 254 246 245 244 242 242 244 245 245 247 249 251 256 260 245 218 209 212 211 193 170 159 157 157 157 156 153 149 140 130 119 102 71 40 14 2 352 332 319
185 187 193 204 209 205 206 208 187 157 166 183 191 234 254 211 221 229 205 201 234 218 214 216 220 227 229 225 226 247 263 254 250 261 274 265 257 256 251 278 298 295 247 265 284 288 270 234 246 246 252 266 260 249 243 243 246 249 250 247 247 247 232 208 198 193 177 155 145 145 146 146 147 146 142 140 137 127 113 104 85 23 358 354 337 311 313
187 189 195 203 202 197 206 214 198 173 175 174 171 225 239 211 222 229 213 220 251 236 213 210 209 228 245 236 228 238 260 266 256 256 265 263 236 218 189 339 289 240 240 299 322 319 255 237 253 253 261 272 271 261 250 247 247 247 245 239 229 215 198 183 171 162 154 149 144 140 139 141 142 138 132 131 129 120 113 114 110 39 5 352 270 275 302
190 192 196 199 189 182 192 203 189 179 180 147 153 186 230 208 211 218 209 217 233 233 226 239 261 291 304 287 253 245 257 269 260 249 259 286 270 222 172 232 240 247 290 329 338 285 251 256 263 256 261 275 279 268 248 234 226 216 199 186 177 170 166 161 152 146 146 148 142 137 138 142 137 126 120 123 126 127 129 132 127 101 47 210 222 250 283
191 193 193 191 183 178 174 172 175 179 180 174 179 189 200 198 200 209 216 214 213 212 222 248 308 349 335 326 309 280 263 257 237 228 243 262 268 243 206 229 241 286 313 315 230 235 259 267 280 294 318 32 71 106 137 147 149 144 136 136 143 144 143 142 141 140 141 142 140 138 139 139 134 130 132 133 130 128 133 142 150 168 199 202 232 276 294
186 183 179 164 162 175 172 162 181 193 198 184 180 192 211 208 195 194 215 231 236 229 222 224 240 283 295 297 289 259 232 209 189 204 228 245 245 227 233 241 252 300 302 270 239 253 256 248 311 335 356 51 97 116 119 123 134 141 139 134 134 135 132 131 133 134 135 137 138 138 138 137 138 140 138 132 126 119 118 127 146 170 189 247 290 298 296
178 172 167 147 151 178 177 159 174 186 189 198 203 205 210 221 229 230 237 252 260 254 247 255 266 255 249 251 248 232 216 208 209 208 202 209 232 231 233 250 261 249 238 236 238 245 250 255 285 317 358 83 113 123 121 117 125 137 137 132 127 125 124 125 128 132 135 138 141 142 144 147 149 147 138 127 119 111 104 103 113 102 325 324 317 303 286
174 167 164 163 195 180 184 219 226 218 223 227 221 217 220 231 242 248 256 269 275 270 264 265 256 238 229 233 245 238 218 215 221 201 183 200 238 240 217 255 245 223 217 232 234 234 253 268 267 251 128 109 113 123 125 119 111 127 131 129 127 126 128 133 140 144 148 152 152 150 152 154 154 151 143 131 123 115 102 78 360 321 322 325 324 298 280
163 154 159 185 206 171 200 228 229 231 246 254 252 249 251 251 252 259 278 287 286 291 293 275 262 256 237 227 232 229 210 211 220 214 199 205 236 224 210 240 238 226 227 232 226 222 226 221 207 176 146 141 141 133 135 157 228 232 179 150 149 158 163 164 161 160 162 162 157 153 156 159 158 153 145 139 137 132 108 48 348 318 343 21 85 126 145
159 156 177 225 248 228 238 243 237 240 256 261 259 264 276 288 302 328 337 325 315 327 327 302 279 273 227 204 220 253 225 207 210 219 208 201 203 208 212 231 242 246 255 249 236 282 296 249 201 179 165 157 148 138 148 177 197 190 164 143 141 149 154 155 156 158 160 158 154 154 160 164 161 152 146 148 157 161 128 101 91 111 115 106 115 146 164
180 191 216 230 241 265 271 266 256 257 270 273 272 283 308 318 318 319 317 306 304 319 321 289 248 241 236 206 218 260 226 200 204 233 220 204 201 210 218 229 236 238 252 266 272 319 5 66 149 157 153 142 132 142 174 186 180 164 147 138 139 144 147 147 149 153 156 158 159 159 158 155 150 144 144 154 163 151 137 129 128 135 143 138 135 164 185
202 237 239 228 227 243 263 267 266 271 279 284 289 292 292 291 294 297 297 291 292 308 307 235 209 208 222 214 221 241 225 196 200 220 215 198 196 208 214 228 234 221 217 237 244 84 87 98 110 112 108 112 141 187 197 184 165 150 143 141 142 142 140 139 142 146 149 151 153 151 147 144 146 151 158 167 167 150 140 143 148 151 153 141 132 150 171
202 226 245 241 239 244 252 259 265 269 270 272 275 278 278 282 289 293 289 281 268 240 217 212 204 176 189 218 226 240 247 234 235 233 212 196 203 216 221 224 216 199 187 170 129 113 110 108 104 98 110 160 183 191 183 161 145 140 141 141 137 133 135 139 143 146 145 144 144 143 143 147 151 154 160 170 173 154 145 150 155 153 148 145 143 147 154